Hourly Data Report for April 07, 2004

SHERBROOKE A
QUEBEC

45°26'00.000" N
71°41'00.000" W
241.40 m
7028124
71610
YSC

Download Data

Hourly Data (April 2004)
Hourly Data Report for April 7, 2004
TIME
LST
Temp Definition
°C
Dew Point Definition
°C
Rel Hum Definition
%
Precip. Amount Definition
mm

Wind Dir Definition
10's deg

Wind Spd Definition
km/h
Visibility Definition
km
Stn Press Definition
kPa
Hmdx Definition


Wind Chill Definition


Weather Definition


00:00 -0.2 -4.9 71   23 11 15.0 97.56   -4  
01:00 -2.2 -6.4 73   26 9 15.0 97.53   -6  
02:00 -2.8 -6.8 74   25 9 15.0 97.50   -6  
03:00 -6.3 -9.1 80   17 4 15.0 97.48   -8  
04:00 -4.6 -7.8 78   20 7 15.0 97.48   -8  
05:00 -7.1 -9.6 82   18 6 15.0 97.46   -10  
06:00 -6.2 -8.7 82   16 4 15.0 97.48   -8 Snow
07:00 -1.7 -7.1 67   23 7 24.1 97.49   -4 Mostly Cloudy
08:00 -0.1 -6.5 62   27 9 24.1 97.49   -3 Mostly Cloudy
09:00 0.6 -6.5 59   29 20 24.1 97.48     Mostly Cloudy
10:00 1.3 -7.0 54   29 20 24.1 97.45     Mostly Cloudy
11:00 2.7 -7.0 49   28 24 24.1 97.40     Mostly Cloudy
12:00 3.3 -6.8 47   28 20 24.1 97.36     Mostly Cloudy
13:00 4.1 -6.5 46   29 24 24.1 97.35     Mostly Cloudy
14:00 4.9 -6.3 44   28 26 24.1 97.35     Mostly Cloudy
15:00 5.6 -5.3 45   29 22 24.1 97.35     Mostly Cloudy
16:00 5.7 -6.6 41   30 13 24.1 97.36     Mostly Cloudy
17:00 5.8 -8.3 35   31 7 15.0 97.36      
18:00 4.8 -8.2 38   26 9 15.0 97.36      
19:00 2.4 -8.2 45   22 7 15.0 97.39      
20:00 2.0 -7.4 50   23 9 15.0 97.42      
21:00 1.3 -6.7 55   25 7 15.0 97.42      
22:00 2.0 -6.6 53   26 7 15.0 97.39      
23:00 0.3 -5.5 65   23 6 15.0 97.39      

Notes on Data Quality.

Legend

  • E = Estimated
  • M = Missing
  • NA = Not Available*
  • [empty] = Indicates an unobserved value
Date modified: